| time (UTC) | temp F | wind direction | speed MPH | gust MPH | rain 1hr in | rain 24hr in | rain mn in | humidity % | barometer mb |
| 20260904190046 | 76 | 260 | 6.0 | 9.0 | 0.00 | 0.00 | 0.00 | 61 | 1015.6 |
| 20260904184549 | 74 | 247 | 3.0 | 8.0 | 0.00 | 0.00 | 0.00 | 63 | 1015.3 |
| 20260904183035 | 74 | 216 | 2.0 | 5.0 | 0.00 | 0.00 | 0.00 | 64 | 1015.1 |
| 20260904181536 | 76 | 258 | 3.0 | 5.0 | 0.00 | 0.00 | 0.00 | 61 | 1015.0 |
| 20260904180034 | 79 | 259 | 4.0 | 9.0 | 0.00 | 0.00 | 0.00 | 57 | 1014.7 |
| 20260904174537 | 79 | 258 | 4.0 | 9.0 | 0.00 | 0.00 | 0.00 | 57 | 1014.5 |
| 20260904173040 | 82 | 268 | 5.0 | 12.0 | 0.00 | 0.00 | 0.00 | 53 | 1014.4 |
| 20260904171535 | 83 | 238 | 10.0 | 15.0 | 0.00 | 0.00 | 0.00 | 50 | 1014.2 |
| 20260904170041 | 84 | 243 | 7.0 | 11.0 | 0.00 | 0.00 | 0.00 | 51 | 1014.2 |
| 20260904164529 | 84 | 271 | 8.0 | 12.0 | 0.00 | 0.00 | 0.00 | 50 | 1014.3 |
| 20260904163027 | 85 | 283 | 5.0 | 12.0 | 0.00 | 0.00 | 0.00 | 50 | 1014.3 |
| 20260904161528 | 85 | 253 | 8.0 | 12.0 | 0.00 | 0.00 | 0.00 | 48 | 1014.4 |
| 20260904160025 | 85 | 259 | 7.0 | 14.0 | 0.00 | 0.00 | 0.00 | 49 | 1014.6 |
| 20260904154528 | 86 | 209 | 5.0 | 11.0 | 0.00 | 0.00 | 0.00 | 47 | 1014.6 |
| 20260904153021 | 85 | 249 | 7.0 | 15.0 | 0.00 | 0.00 | 0.00 | 48 | 1014.7 |
| 20260904151520 | 85 | 245 | 7.0 | 15.0 | 0.00 | 0.00 | 0.00 | 47 | 1015.0 |
| 20260904150030 | 86 | 217 | 7.0 | 13.0 | 0.00 | 0.00 | 0.00 | 48 | 1015.1 |
| 20260904144519 | 85 | 262 | 7.0 | 13.0 | 0.00 | 0.00 | 0.00 | 48 | 1015.1 |
| 20260904143018 | 86 | 210 | 8.0 | 14.0 | 0.00 | 0.00 | 0.00 | 47 | 1015.3 |
| 20260904141526 | 86 | 275 | 8.0 | 15.0 | 0.00 | 0.00 | 0.00 | 48 | 1015.6 |
| 20260904140030 | 86 | 256 | 7.0 | 13.0 | 0.00 | 0.00 | 0.00 | 47 | 1015.7 |
| 20260904134514 | 85 | 238 | 4.0 | 11.0 | 0.00 | 0.00 | 0.00 | 47 | 1015.7 |
| 20260904133012 | 85 | 228 | 8.0 | 13.0 | 0.00 | 0.00 | 0.00 | 47 | 1015.8 |
| 20260904131507 | 85 | 276 | 10.0 | 14.0 | 0.00 | 0.00 | 0.00 | 47 | 1015.9 |
| 20260904130004 | 84 | 303 | 7.0 | 13.0 | 0.00 | 0.00 | 0.00 | 48 | 1016.2 |
| 20260904124504 | 85 | 232 | 7.0 | 11.0 | 0.00 | 0.00 | 0.00 | 47 | 1016.2 |
| 20260904123002 | 84 | 263 | 9.0 | 13.0 | 0.00 | 0.00 | 0.00 | 49 | 1016.5 |
| 20260904121558 | 83 | 292 | 7.0 | 13.0 | 0.00 | 0.00 | 0.00 | 49 | 1016.7 |
| 20260904120104 | 82 | 305 | 5.0 | 14.0 | 0.00 | 0.00 | 0.00 | 50 | 1016.8 |
| 20260904114654 | 82 | 267 | 9.0 | 15.0 | 0.00 | 0.00 | 0.00 | 49 | 1017.0 |
| 20260904113050 | 81 | 274 | 10.0 | 13.0 | 0.00 | 0.00 | 0.00 | 50 | 1017.1 |
| 20260904111547 | 80 | 234 | 8.0 | 19.0 | 0.00 | 0.00 | 0.00 | 48 | 1017.4 |
| 20260904110045 | 80 | 241 | 10.0 | 16.0 | 0.00 | 0.00 | 0.00 | 49 | 1017.5 |
| 20260904104544 | 79 | 270 | 8.0 | 15.0 | 0.00 | 0.00 | 0.00 | 51 | 1017.8 |
| 20260904103040 | 79 | 271 | 8.0 | 15.0 | 0.00 | 0.00 | 0.00 | 52 | 1018.0 |
| 20260904101533 | 78 | 255 | 8.0 | 15.0 | 0.00 | 0.00 | 0.00 | 52 | 1018.4 |
| 20260904100030 | 77 | 203 | 9.0 | 15.0 | 0.00 | 0.00 | 0.00 | 51 | 1018.5 |
| 20260904094538 | 76 | 250 | 10.0 | 17.0 | 0.00 | 0.00 | 0.00 | 54 | 1018.7 |
| 20260904093022 | 75 | 202 | 11.0 | 16.0 | 0.00 | 0.00 | 0.00 | 55 | 1018.9 |
| 20260904091518 | 75 | 226 | 7.0 | 16.0 | 0.00 | 0.00 | 0.00 | 56 | 1019.1 |
| 20260904090014 | 75 | 237 | 4.0 | 11.0 | 0.00 | 0.00 | 0.00 | 56 | 1019.1 |
| 20260904084509 | 74 | 226 | 5.0 | 11.0 | 0.00 | 0.00 | 0.00 | 58 | 1019.1 |
| 20260904083004 | 72 | 76 | 1.0 | 6.0 | 0.00 | 0.00 | 0.00 | 62 | 1019.2 |
| 20260904081602 | 72 | 204 | 4.0 | 10.0 | 0.00 | 0.00 | 0.00 | 60 | 1019.1 |
| 20260904080104 | 70 | 222 | 4.0 | 14.0 | 0.00 | 0.00 | 0.00 | 62 | 1019.3 |
| 20260904074556 | 71 | 211 | 3.0 | 12.0 | 0.00 | 0.00 | 0.00 | 61 | 1019.5 |
| 20260904073100 | 71 | 219 | 5.0 | 9.0 | 0.00 | 0.00 | 0.00 | 60 | 1019.5 |
| 20260904071546 | 70 | 172 | 0.0 | 11.0 | 0.00 | 0.00 | 0.00 | 68 | 1019.6 |
| 20260904070044 | 70 | 252 | 0.0 | 0.0 | 0.00 | 0.00 | 0.00 | 65 | 1019.7 |
| 20260904064540 | 68 | 311 | 0.0 | 0.0 | 0.00 | 0.00 | 0.00 | 68 | 1019.6 |
| 20260904063031 | 67 | 322 | 0.0 | 0.0 | 0.00 | 0.00 | 0.00 | 67 | 1019.6 |
| 20260904061536 | 67 | 78 | 0.0 | 0.0 | 0.00 | 0.00 | 0.00 | 72 | 1019.5 |
| 20260904060027 | 65 | 212 | 0.0 | 0.0 | 0.00 | 0.00 | 0.00 | 71 | 1019.6 |
| 20260904054520 | 63 | 212 | 0.0 | 0.0 | 0.00 | 0.00 | 0.00 | 75 | 1019.7 |
| 20260904053011 | 60 | 212 | 0.0 | 0.0 | 0.00 | 0.00 | 0.00 | 78 | 1019.8 |
| 20260904051508 | 58 | 212 | 0.0 | 0.0 | 0.00 | 0.00 | 0.00 | 80 | 1019.8 |
| 20260904050004 | 58 | 212 | 0.0 | 0.0 | 0.00 | 0.00 | 0.00 | 81 | 1019.8 |
| 20260904044506 | 57 | 213 | 0.0 | 0.0 | 0.00 | 0.00 | 0.00 | 81 | 1020.0 |
| 20260904043111 | 58 | 216 | 0.0 | 3.0 | 0.00 | 0.00 | 0.00 | 81 | 1020.0 |
| 20260904041602 | 58 | 216 | 0.0 | 0.0 | 0.00 | 0.00 | 0.00 | 81 | 1020.0 |
| 20260904040058 | 58 | 216 | 0.0 | 4.0 | 0.00 | 0.00 | 0.00 | 81 | 1020.0 |
| 20260904034556 | 58 | 304 | 0.0 | 0.0 | 0.00 | 0.00 | 0.00 | 80 | 1020.3 |
| 20260904033053 | 59 | 245 | 0.0 | 1.0 | 0.00 | 0.00 | 0.00 | 79 | 1020.5 |
| 20260904031552 | 59 | 204 | 1.0 | 3.0 | 0.00 | 0.00 | 0.00 | 79 | 1020.4 |
| 20260904030051 | 59 | 204 | 0.0 | 3.0 | 0.00 | 0.00 | 0.00 | 78 | 1020.3 |
| 20260904024559 | 59 | 204 | 0.0 | 3.0 | 0.00 | 0.00 | 0.00 | 79 | 1020.5 |
| 20260904023047 | 59 | 198 | 2.0 | 4.0 | 0.00 | 0.00 | 0.00 | 78 | 1020.7 |
| 20260904021552 | 60 | 156 | 0.0 | 0.0 | 0.00 | 0.00 | 0.00 | 76 | 1020.8 |
| 20260904020045 | 60 | 151 | 0.0 | 0.0 | 0.00 | 0.00 | 0.00 | 76 | 1020.8 |
| 20260904014550 | 60 | 213 | 0.0 | 2.0 | 0.00 | 0.00 | 0.00 | 77 | 1020.9 |
| 20260904013104 | 60 | 215 | 2.0 | 3.0 | 0.00 | 0.00 | 0.00 | 79 | 1021.2 |
| 20260904011539 | 60 | 255 | 0.0 | 2.0 | 0.00 | 0.00 | 0.00 | 77 | 1021.3 |
| 20260904010037 | 60 | 251 | 1.0 | 3.0 | 0.00 | 0.00 | 0.00 | 77 | 1021.3 |
| 20260904004537 | 61 | 215 | 0.0 | 0.0 | 0.00 | 0.00 | 0.00 | 77 | 1021.2 |
| 20260904003034 | 61 | 215 | 0.0 | 3.0 | 0.00 | 0.00 | 0.00 | 76 | 1021.2 |
| 20260904001550 | 62 | 217 | 1.0 | 3.0 | 0.00 | 0.00 | 0.00 | 74 | 1021.3 |
| 20260904000027 | 63 | 218 | 0.0 | 0.0 | 0.00 | 0.00 | 0.00 | 72 | 1021.4 |
| 20260903234527 | 65 | 218 | 0.0 | 0.0 | 0.00 | 0.00 | 0.00 | 70 | 1021.4 |
| 20260903233037 | 66 | 218 | 0.0 | 3.0 | 0.00 | 0.00 | 0.00 | 68 | 1021.4 |
| 20260903231525 | 67 | 216 | 3.0 | 6.0 | 0.00 | 0.00 | 0.00 | 66 | 1021.5 |
| 20260903230029 | 66 | 227 | 4.0 | 6.0 | 0.00 | 0.00 | 0.00 | 67 | 1021.5 |
| 20260903224526 | 66 | 205 | 3.0 | 6.0 | 0.00 | 0.00 | 0.00 | 68 | 1021.6 |
| 20260903223020 | 66 | 205 | 4.0 | 7.0 | 0.00 | 0.00 | 0.00 | 69 | 1021.7 |
| 20260903221516 | 65 | 208 | 4.0 | 8.0 | 0.00 | 0.00 | 0.00 | 71 | 1021.8 |
| 20260903220012 | 63 | 221 | 2.0 | 4.0 | 0.00 | 0.00 | 0.00 | 74 | 1021.9 |
| 20260903214512 | 63 | 214 | 2.0 | 4.0 | 0.00 | 0.00 | 0.00 | 76 | 1022.0 |
| 20260903213010 | 63 | 217 | 1.0 | 4.0 | 0.00 | 0.00 | 0.00 | 75 | 1021.9 |
| 20260903211510 | 63 | 227 | 2.0 | 4.0 | 0.00 | 0.00 | 0.00 | 75 | 1021.8 |
| 20260903210010 | 64 | 224 | 2.0 | 4.0 | 0.00 | 0.00 | 0.00 | 74 | 1021.9 |
| 20260903204510 | 64 | 248 | 1.0 | 4.0 | 0.00 | 0.00 | 0.00 | 73 | 1021.8 |
| 20260903203008 | 64 | 223 | 2.0 | 4.0 | 0.00 | 0.00 | 0.00 | 73 | 1021.8 |
| 20260903201510 | 64 | 224 | 0.0 | 3.0 | 0.00 | 0.00 | 0.00 | 73 | 1021.7 |
| 20260903200008 | 64 | 224 | 1.0 | 3.0 | 0.00 | 0.00 | 0.00 | 73 | 1021.6 |
| 20260903194507 | 65 | 225 | 0.0 | 4.0 | 0.00 | 0.00 | 0.00 | 73 | 1021.6 |
| 20260903193013 | 66 | 228 | 1.0 | 2.0 | 0.00 | 0.00 | 0.00 | 70 | 1021.5 |
| 20260903191507 | 66 | 228 | 0.0 | 4.0 | 0.00 | 0.00 | 0.00 | 68 | 1021.4 |